#timestamp,LO_Frequency,Hit,StdDev 
1662973215.9,286046999.2,N
1662973235.7,286046998.7,N
1662973255.6,286046999.3,N
1662973275.4,286046998.5,N
1662973295.2,286046998.8,N
1662973315.1,286046998.6,N
1662973316.0,286046998.6,N
1662973335.8,286046998.8,N
1662973355.7,286046998.9,N
1662973375.5,286046998.8,N
1662973395.3,286046999.2,N
1662973415.2,286046999.2,N
1662973435.0,286046999.1,N
1662973435.9,286046999.1,N
1662973455.8,286046997.2,Y
1662973475.6,286046999.4,P
1662973495.4,286046997.0,P
1662973515.3,286046999.2,N
1662973535.1,286046996.8,Y
1662973555.8,286046998.7,P
1662973575.7,286046998.4,P
1662973595.5,286046999.1,P
1662973615.4,286046998.8,Y
1662973635.2,286047001.2,P
1662973655.0,286047000.8,N
1662973655.9,286047000.8,N
1662973675.8,286047000.6,N
1662973695.6,286047002.7,Y
1662973715.5,286047000.1,P
1662973735.3,286047000.8,P
1662973755.1,286046998.2,P
1662973775.9,286047000.6,N
1662973795.9,286047000.0,N
1662973815.7,286047002.7,Y
1662973835.5,286047000.7,P
1662973855.4,286047000.4,N
1662973875.2,286046998.8,P
1662973895.1,286046998.4,N
1662973896.0,286046998.4,N
1662973915.8,286046999.0,N
1662973935.6,286046999.2,N
1662973955.5,286046996.6,Y
1662973975.3,286046999.2,P
1662973995.1,286046999.4,P
1662974015.9,286046999.4,P
1662974035.7,286046999.0,Y
1662974055.6,286046998.6,P
1662974075.4,286046998.4,P
1662974095.2,286046998.8,P
1662974115.1,286046998.8,Y
1662974116.0,286046998.8,P
1662974135.8,286047000.5,P
1662974155.7,286047000.4,N
1662974175.5,286047000.3,N
1662974195.3,286047000.5,N
1662974215.2,286047000.3,N
1662974235.0,286047001.0,N
1662974235.9,286047001.0,N
1662974255.7,286046998.1,N
1662974275.6,286046998.5,N
1662974295.4,286046998.6,N
1662974315.3,286046999.8,N
1662974335.1,286047000.6,N
1662974336.0,286047000.6,N
1662974355.8,286047001.0,N
1662974375.7,286047000.9,N
1662974395.5,286046999.8,N
1662974415.3,286047000.9,N
1662974435.2,286047001.0,N
1662974455.0,286047001.2,N
1662974455.9,286047001.2,N
1662974475.8,286047001.1,N
1662974495.6,286046998.7,N
1662974515.4,286046998.5,N
1662974535.3,286046998.9,N
1662974555.1,286046998.2,N
1662974575.8,286046998.6,N
1662974595.7,286046998.2,N
1662974615.5,286047000.9,N
1662974635.4,286046998.5,N
1662974655.2,286047001.2,N
1662974675.0,286047001.2,N
1662974675.9,286047001.2,N
1662974695.8,286046998.2,N
1662974715.6,286047000.6,N
1662974735.5,286047000.4,N
1662974755.3,286046998.1,N
1662974775.1,286047001.1,N
1662974795.9,286047000.7,N
1662974815.7,286046998.2,N
1662974835.5,286047000.5,N
1662974855.4,286047000.9,N
1662974875.2,286047000.7,N
1662974895.1,286046999.3,N
1662974896.0,286046999.3,N
1662974915.8,286046998.8,N
1662974935.6,286046998.7,N
1662974955.5,286046998.2,N
1662974975.3,286047001.1,N
1662974995.1,286046998.3,N
1662975015.9,286046998.2,N
1662975035.7,286046998.5,N
1662975055.6,286046998.4,N
1662975075.4,286046998.5,N
1662975095.2,286046998.5,N
1662975115.1,286046998.1,N
1662975116.0,286046998.1,N
1662975135.8,286046998.2,N
1662975155.7,286046998.2,N
1662975175.5,286047001.2,N
1662975195.3,286047000.6,N
1662975215.2,286046998.1,N
1662975235.9,286047001.2,N
1662975255.7,286046998.5,N
1662975275.6,286047000.6,N
1662975295.4,286047000.6,N
1662975315.3,286046999.7,N
1662975335.1,286047002.1,N
1662975336.0,286047002.1,N
1662975355.8,286047002.1,N
1662975375.7,286047001.8,N
1662975395.5,286047001.3,N
1662975415.3,286047001.7,N
1662975435.2,286047002.0,N
1662975455.0,286047001.7,N
1662975455.9,286047001.7,N
1662975475.8,286047004.3,N
1662975495.6,286047004.3,N
1662975515.4,286047003.7,N
1662975535.3,286047001.4,N
1662975555.1,286047003.6,N
1662975575.8,286047003.7,N
1662975595.7,286047003.4,N
1662975615.5,286047003.6,N
1662975635.4,286047003.7,N
1662975655.2,286047004.2,N
1662975675.0,286047002.2,N
1662975675.9,286047002.2,N
1662975695.8,286047004.0,N
1662975715.6,286047004.3,N
1662975735.5,286047004.1,N
1662975755.3,286047003.7,N
1662975775.1,286047003.5,N
1662975795.9,286047004.1,N
1662975815.7,286047003.7,N
1662975835.6,286047003.5,N
1662975855.4,286047003.5,N
1662975875.2,286047005.8,Y
1662975895.1,286046999.8,P
1662975896.0,286046999.8,N
1662975915.8,286046999.8,N
1662975935.6,286047002.4,N
1662975955.5,286047001.8,N
1662975975.3,286047004.2,Y
1662975995.2,286047002.6,P
1662976015.9,286047000.1,N
1662976035.7,286047000.5,N
1662976055.6,286047002.3,N
1662976075.4,286047001.9,N
1662976095.2,286047002.6,N
1662976115.1,286047002.2,N
1662976116.0,286047002.2,N
1662976135.8,286047004.2,Y
1662976155.7,286046999.7,P
1662976175.5,286047002.3,N
1662976195.3,286047001.9,N
1662976215.2,286047002.8,N
1662976235.0,286047002.4,N
1662976235.9,286047002.4,N
1662976255.8,286046999.7,N
1662976275.6,286047000.1,N
1662976295.4,286047002.8,N
1662976315.3,286047002.6,N
1662976335.1,286047000.1,N
1662976355.8,286047002.5,N
1662976375.7,286047002.6,N
1662976395.5,286047002.5,N
1662976415.4,286047000.2,N
1662976435.2,286047000.9,N
1662976455.0,286047001.0,N
1662976455.9,286047001.0,N
1662976475.8,286046998.4,N
1662976495.6,286047001.0,N
1662976515.5,286047000.9,N
1662976535.3,286047002.8,N
1662976555.1,286047000.6,N
1662976575.9,286047002.7,N
1662976595.7,286047002.6,N
1662976615.5,286047002.3,N
1662976635.4,286047001.5,N
1662976655.2,286047001.6,N
1662976675.1,286047002.2,N
1662976676.0,286047002.2,N
1662976695.8,286047002.5,N
1662976715.6,286047001.9,N
1662976735.5,286047001.8,N
1662976755.3,286047001.8,N
1662976775.1,286047001.8,N
1662976795.9,286047002.5,N
